Year,Month,Day,Hour,Minute,Value (Times are PST for temperature in C)
2012,07,04,00,00,13.10
2012,07,04,00,01,13.10
2012,07,04,00,02,13.10
2012,07,04,00,03,13.10
2012,07,04,00,04,13.10
2012,07,04,00,05,13.10
2012,07,04,00,06,13.10
2012,07,04,00,07,13.10
2012,07,04,00,08,13.10
2012,07,04,00,09,13.10
2012,07,04,00,10,13.10
2012,07,04,00,11,13.10
2012,07,04,00,12,13.10
2012,07,04,00,13,13.10
2012,07,04,00,14,13.10
2012,07,04,00,15,13.10
2012,07,04,00,16,13.10
2012,07,04,00,17,13.10
2012,07,04,00,18,13.10
2012,07,04,00,19,13.10
2012,07,04,00,20,13.00
2012,07,04,00,21,13.00
2012,07,04,00,22,13.00
2012,07,04,00,23,13.00
2012,07,04,00,24,13.00
2012,07,04,00,25,13.00
2012,07,04,00,26,13.00
2012,07,04,00,27,13.00
2012,07,04,00,28,13.00
2012,07,04,00,29,13.00
2012,07,04,00,30,13.00
2012,07,04,00,31,13.00
2012,07,04,00,32,13.00
2012,07,04,00,33,13.00
2012,07,04,00,34,13.00
2012,07,04,00,35,12.90
2012,07,04,00,36,12.90
2012,07,04,00,37,12.90
2012,07,04,00,38,12.90
2012,07,04,00,39,12.90
2012,07,04,00,40,12.90
2012,07,04,00,41,12.90
2012,07,04,00,42,12.90
2012,07,04,00,43,12.90
2012,07,04,00,44,12.90
2012,07,04,00,45,12.90
2012,07,04,00,46,12.90
2012,07,04,00,47,12.90
2012,07,04,00,48,12.90
2012,07,04,00,49,12.90
2012,07,04,00,50,12.90
2012,07,04,00,51,12.90
2012,07,04,00,52,12.90
2012,07,04,00,53,12.90
2012,07,04,00,54,12.90
2012,07,04,00,55,12.90
2012,07,04,00,56,12.90
2012,07,04,00,57,12.90
2012,07,04,00,58,12.90
2012,07,04,00,59,12.90
2012,07,04,01,00,12.90
2012,07,04,01,01,12.80
2012,07,04,01,02,12.80
2012,07,04,01,03,12.80
2012,07,04,01,04,12.80
2012,07,04,01,05,12.80
2012,07,04,01,06,12.70
2012,07,04,01,07,12.70
2012,07,04,01,08,12.70
2012,07,04,01,09,12.70
2012,07,04,01,10,12.60
2012,07,04,01,11,12.60
2012,07,04,01,12,12.60
2012,07,04,01,13,12.60
2012,07,04,01,14,12.60
2012,07,04,01,15,12.60
2012,07,04,01,16,12.50
2012,07,04,01,17,12.50
2012,07,04,01,18,12.50
2012,07,04,01,19,12.50
2012,07,04,01,20,12.40
2012,07,04,01,21,12.40
2012,07,04,01,22,12.40
2012,07,04,01,23,12.40
2012,07,04,01,24,12.40
2012,07,04,01,25,12.40
2012,07,04,01,26,12.40
2012,07,04,01,27,12.40
2012,07,04,01,28,12.40
2012,07,04,01,29,12.40
2012,07,04,01,30,12.40
2012,07,04,01,31,12.40
2012,07,04,01,32,12.40
2012,07,04,01,33,12.40
2012,07,04,01,34,12.40
2012,07,04,01,35,12.40
2012,07,04,01,36,12.40
2012,07,04,01,37,12.40
2012,07,04,01,38,12.40
2012,07,04,01,39,12.40
2012,07,04,01,40,12.30
2012,07,04,01,41,12.30
2012,07,04,01,42,12.30
2012,07,04,01,43,12.30
2012,07,04,01,44,12.30
2012,07,04,01,45,12.30
2012,07,04,01,46,12.30
2012,07,04,01,47,12.30
2012,07,04,01,48,12.30
2012,07,04,01,49,12.30
2012,07,04,01,50,12.30
2012,07,04,01,51,12.30
2012,07,04,01,52,12.30
2012,07,04,01,53,12.30
2012,07,04,01,54,12.30
2012,07,04,01,55,12.30
2012,07,04,01,56,12.30
2012,07,04,01,57,12.30
2012,07,04,01,58,12.30
2012,07,04,01,59,12.30
2012,07,04,02,00,12.30
2012,07,04,02,01,12.30
2012,07,04,02,02,12.30
2012,07,04,02,03,12.20
2012,07,04,02,04,12.20
2012,07,04,02,05,12.20
2012,07,04,02,06,12.20
2012,07,04,02,07,12.20
2012,07,04,02,08,12.20
2012,07,04,02,09,12.20
2012,07,04,02,10,12.20
2012,07,04,02,11,12.20
2012,07,04,02,12,12.20
2012,07,04,02,13,12.20
2012,07,04,02,14,12.10
2012,07,04,02,15,12.10
2012,07,04,02,16,12.10
2012,07,04,02,17,12.10
2012,07,04,02,18,12.10
2012,07,04,02,19,12.10
2012,07,04,02,20,12.10
2012,07,04,02,21,12.10
2012,07,04,02,22,12.10
2012,07,04,02,23,12.10
2012,07,04,02,24,12.10
2012,07,04,02,25,12.10
2012,07,04,02,26,12.10
2012,07,04,02,27,12.10
2012,07,04,02,28,12.10
2012,07,04,02,29,12.10
2012,07,04,02,30,12.10
2012,07,04,02,31,12.00
2012,07,04,02,32,12.00
2012,07,04,02,33,12.00
2012,07,04,02,34,12.00
2012,07,04,02,35,12.00
2012,07,04,02,36,12.00
2012,07,04,02,37,12.00
2012,07,04,02,38,12.00
2012,07,04,02,39,12.00
2012,07,04,02,40,11.90
2012,07,04,02,41,11.90
2012,07,04,02,42,11.90
2012,07,04,02,43,11.90
2012,07,04,02,44,11.90
2012,07,04,02,45,11.90
2012,07,04,02,46,11.90
2012,07,04,02,47,11.90
2012,07,04,02,48,11.90
2012,07,04,02,49,11.90
2012,07,04,02,50,11.90
2012,07,04,02,51,11.90
2012,07,04,02,52,11.80
2012,07,04,02,53,11.80
2012,07,04,02,54,11.80
2012,07,04,02,55,11.80
2012,07,04,02,56,11.80
2012,07,04,02,57,11.80
2012,07,04,02,58,11.80
2012,07,04,02,59,11.80
2012,07,04,03,00,11.80
2012,07,04,03,01,11.80
2012,07,04,03,02,11.80
2012,07,04,03,03,11.80
2012,07,04,03,04,11.80
2012,07,04,03,05,11.80
2012,07,04,03,06,11.80
2012,07,04,03,07,11.80
2012,07,04,03,08,11.80
2012,07,04,03,09,11.80
2012,07,04,03,10,11.80
2012,07,04,03,11,11.80
2012,07,04,03,12,11.80
2012,07,04,03,13,11.80
2012,07,04,03,14,11.80
2012,07,04,03,15,11.80
2012,07,04,03,16,11.80
2012,07,04,03,17,11.80
2012,07,04,03,18,11.80
2012,07,04,03,19,11.80
2012,07,04,03,20,11.80
2012,07,04,03,21,11.80
2012,07,04,03,22,11.80
2012,07,04,03,23,11.80
2012,07,04,03,24,11.80
2012,07,04,03,25,11.80
2012,07,04,03,26,11.80
2012,07,04,03,27,11.70
2012,07,04,03,28,11.70
2012,07,04,03,29,11.70
2012,07,04,03,30,11.70
2012,07,04,03,31,11.70
2012,07,04,03,32,11.70
2012,07,04,03,33,11.70
2012,07,04,03,34,11.70
2012,07,04,03,35,11.70
2012,07,04,03,36,11.70
2012,07,04,03,37,11.70
2012,07,04,03,38,11.70
2012,07,04,03,39,11.70
2012,07,04,03,40,11.70
2012,07,04,03,41,11.70
2012,07,04,03,42,11.70
2012,07,04,03,43,11.70
2012,07,04,03,44,11.70
2012,07,04,03,45,11.70
2012,07,04,03,46,11.70
2012,07,04,03,47,11.70
2012,07,04,03,48,11.70
2012,07,04,03,49,11.70
2012,07,04,03,50,11.70
2012,07,04,03,51,11.70
2012,07,04,03,52,11.70
2012,07,04,03,53,11.70
2012,07,04,03,54,11.70
2012,07,04,03,55,11.70
2012,07,04,03,56,11.70
2012,07,04,03,57,11.70
2012,07,04,03,58,11.70
2012,07,04,03,59,11.70
2012,07,04,04,00,11.70
2012,07,04,04,01,11.70
2012,07,04,04,02,11.70
2012,07,04,04,03,11.70
2012,07,04,04,04,11.70
2012,07,04,04,05,11.60
2012,07,04,04,06,11.60
2012,07,04,04,07,11.60
2012,07,04,04,08,11.60
2012,07,04,04,09,11.70
2012,07,04,04,10,11.60
2012,07,04,04,11,11.60
2012,07,04,04,12,11.60
2012,07,04,04,13,11.60
2012,07,04,04,14,11.60
2012,07,04,04,15,11.50
2012,07,04,04,16,11.50
2012,07,04,04,17,11.50
2012,07,04,04,18,11.40
2012,07,04,04,19,11.40
2012,07,04,04,20,11.40
2012,07,04,04,21,11.30
2012,07,04,04,22,11.30
2012,07,04,04,23,11.30
2012,07,04,04,24,11.30
2012,07,04,04,25,11.30
2012,07,04,04,26,11.30
2012,07,04,04,27,11.30
2012,07,04,04,28,11.30
2012,07,04,04,29,11.20
2012,07,04,04,30,11.20
2012,07,04,04,31,11.20
2012,07,04,04,32,11.20
2012,07,04,04,33,11.20
2012,07,04,04,34,11.20
2012,07,04,04,35,11.20
2012,07,04,04,36,11.20
2012,07,04,04,37,11.20
2012,07,04,04,38,11.20
2012,07,04,04,39,11.20
2012,07,04,04,40,11.20
2012,07,04,04,41,11.20
2012,07,04,04,42,11.20
2012,07,04,04,43,11.20
2012,07,04,04,44,11.20
2012,07,04,04,45,11.20
2012,07,04,04,46,11.20
2012,07,04,04,47,11.20
2012,07,04,04,48,11.20
2012,07,04,04,49,11.20
2012,07,04,04,50,11.10
2012,07,04,04,51,11.10
2012,07,04,04,52,11.10
2012,07,04,04,53,11.10
2012,07,04,04,54,11.10
2012,07,04,04,55,11.10
2012,07,04,04,56,11.10
2012,07,04,04,57,11.10
2012,07,04,04,58,11.10
2012,07,04,04,59,11.10
2012,07,04,05,00,11.10
2012,07,04,05,01,11.10
2012,07,04,05,02,11.10
2012,07,04,05,03,11.00
2012,07,04,05,04,11.00
2012,07,04,05,05,11.00
2012,07,04,05,06,11.00
2012,07,04,05,07,11.00
2012,07,04,05,08,11.00
2012,07,04,05,09,11.00
2012,07,04,05,10,11.00
2012,07,04,05,11,10.90
2012,07,04,05,12,10.90
2012,07,04,05,13,10.90
2012,07,04,05,14,10.90
2012,07,04,05,15,10.90
2012,07,04,05,16,10.90
2012,07,04,05,17,10.90
2012,07,04,05,18,10.90
2012,07,04,05,19,10.90
2012,07,04,05,20,10.90
2012,07,04,05,21,10.90
2012,07,04,05,22,10.90
2012,07,04,05,23,10.90
2012,07,04,05,24,10.90
2012,07,04,05,25,10.90
2012,07,04,05,26,10.90
2012,07,04,05,27,10.90
2012,07,04,05,28,10.90
2012,07,04,05,29,10.90
2012,07,04,05,30,10.90
2012,07,04,05,31,10.90
2012,07,04,05,32,10.90
2012,07,04,05,33,10.90
2012,07,04,05,34,10.90
2012,07,04,05,35,10.90
2012,07,04,05,36,10.90
2012,07,04,05,37,10.90
2012,07,04,05,38,10.90
2012,07,04,05,39,10.90
2012,07,04,05,40,10.90
2012,07,04,05,41,10.80
2012,07,04,05,42,10.80
2012,07,04,05,43,10.80
2012,07,04,05,44,10.80
2012,07,04,05,45,10.80
2012,07,04,05,46,10.80
2012,07,04,05,47,10.80
2012,07,04,05,48,10.80
2012,07,04,05,49,10.80
2012,07,04,05,50,10.80
2012,07,04,05,51,10.70
2012,07,04,05,52,10.70
2012,07,04,05,53,10.70
2012,07,04,05,54,10.80
2012,07,04,05,55,10.80
2012,07,04,05,56,10.80
2012,07,04,05,57,10.70
2012,07,04,05,58,10.70
2012,07,04,05,59,10.70
2012,07,04,06,00,10.70
2012,07,04,06,01,10.70
2012,07,04,06,02,10.70
2012,07,04,06,03,10.70
2012,07,04,06,04,10.70
2012,07,04,06,05,10.70
2012,07,04,06,06,10.70
2012,07,04,06,07,10.70
2012,07,04,06,08,10.70
2012,07,04,06,09,10.70
2012,07,04,06,10,10.70
2012,07,04,06,11,10.70
2012,07,04,06,12,10.70
2012,07,04,06,13,10.70
2012,07,04,06,14,10.70
2012,07,04,06,15,10.70
2012,07,04,06,16,10.70
2012,07,04,06,17,10.70
2012,07,04,06,18,10.70
2012,07,04,06,19,10.70
2012,07,04,06,20,10.70
2012,07,04,06,21,10.70
2012,07,04,06,22,10.70
2012,07,04,06,23,10.70
2012,07,04,06,24,10.70
2012,07,04,06,25,10.70
2012,07,04,06,26,10.70
2012,07,04,06,27,10.70
2012,07,04,06,28,10.70
2012,07,04,06,29,10.70
2012,07,04,06,30,10.70
2012,07,04,06,31,10.70
2012,07,04,06,32,10.70
2012,07,04,06,33,10.70
2012,07,04,06,34,10.70
2012,07,04,06,35,10.70
2012,07,04,06,36,10.70
2012,07,04,06,37,10.60
2012,07,04,06,38,10.60
2012,07,04,06,39,10.60
2012,07,04,06,40,10.60
2012,07,04,06,41,10.60
2012,07,04,06,42,10.70
2012,07,04,06,43,10.70
2012,07,04,06,44,10.70
2012,07,04,06,45,10.70
2012,07,04,06,46,10.70
2012,07,04,06,47,10.70
2012,07,04,06,48,10.70
2012,07,04,06,49,10.70
2012,07,04,06,50,10.60
2012,07,04,06,51,10.60
2012,07,04,06,52,10.60
2012,07,04,06,53,10.60
2012,07,04,06,54,10.60
2012,07,04,06,55,10.70
2012,07,04,06,56,10.60
2012,07,04,06,57,10.70
2012,07,04,06,58,10.70
2012,07,04,06,59,10.70
2012,07,04,07,00,10.70
2012,07,04,07,01,10.70
2012,07,04,07,02,10.70
2012,07,04,07,03,10.70
2012,07,04,07,04,10.70
2012,07,04,07,05,10.70
2012,07,04,07,06,10.70
2012,07,04,07,07,10.70
2012,07,04,07,08,10.70
2012,07,04,07,09,10.70
2012,07,04,07,10,10.70
2012,07,04,07,11,10.70
2012,07,04,07,12,10.70
2012,07,04,07,13,10.70
2012,07,04,07,14,10.70
2012,07,04,07,15,10.70
2012,07,04,07,16,10.70
2012,07,04,07,17,10.70
2012,07,04,07,18,10.70
2012,07,04,07,19,10.70
2012,07,04,07,20,10.70
2012,07,04,07,21,10.70
2012,07,04,07,22,10.70
2012,07,04,07,23,10.70
2012,07,04,07,24,10.70
2012,07,04,07,25,10.70
2012,07,04,07,26,10.70
2012,07,04,07,27,10.70
2012,07,04,07,28,10.70
2012,07,04,07,29,10.70
2012,07,04,07,30,10.70
2012,07,04,07,31,10.70
2012,07,04,07,32,10.70
2012,07,04,07,33,10.80
2012,07,04,07,34,10.80
2012,07,04,07,35,10.80
2012,07,04,07,36,10.80
2012,07,04,07,37,10.80
2012,07,04,07,38,10.80
2012,07,04,07,39,10.80
2012,07,04,07,40,10.80
2012,07,04,07,41,10.80
2012,07,04,07,42,10.80
2012,07,04,07,43,10.80
2012,07,04,07,44,10.80
2012,07,04,07,45,10.80
2012,07,04,07,46,10.90
2012,07,04,07,47,10.90
2012,07,04,07,48,10.90
2012,07,04,07,49,10.90
2012,07,04,07,50,10.90
2012,07,04,07,51,10.90
2012,07,04,07,52,10.90
2012,07,04,07,53,10.90
2012,07,04,07,54,11.00
2012,07,04,07,55,11.00
2012,07,04,07,56,11.00
2012,07,04,07,57,11.00
2012,07,04,07,58,11.10
2012,07,04,07,59,11.10
2012,07,04,08,00,11.10
2012,07,04,08,01,11.10
2012,07,04,08,02,11.20
2012,07,04,08,03,11.20
2012,07,04,08,04,11.20
2012,07,04,08,05,11.20
2012,07,04,08,06,11.20
2012,07,04,08,07,11.20
2012,07,04,08,08,11.20
2012,07,04,08,09,11.20
2012,07,04,08,10,11.20
2012,07,04,08,11,11.20
2012,07,04,08,12,11.30
2012,07,04,08,13,11.30
2012,07,04,08,14,11.30
2012,07,04,08,15,11.30
2012,07,04,08,16,11.30
2012,07,04,08,17,11.30
2012,07,04,08,18,11.30
2012,07,04,08,19,11.30
2012,07,04,08,20,11.30
2012,07,04,08,21,11.30
2012,07,04,08,22,11.30
2012,07,04,08,23,11.30
2012,07,04,08,24,11.30
2012,07,04,08,25,11.40
2012,07,04,08,26,11.40
2012,07,04,08,27,11.40
2012,07,04,08,28,11.40
2012,07,04,08,29,11.40
2012,07,04,08,30,11.40
2012,07,04,08,31,11.40
2012,07,04,08,32,11.40
2012,07,04,08,33,11.40
2012,07,04,08,34,11.40
2012,07,04,08,35,11.40
2012,07,04,08,36,11.40
2012,07,04,08,37,11.40
2012,07,04,08,38,11.40
2012,07,04,08,39,11.50
2012,07,04,08,40,11.50
2012,07,04,08,41,11.50
2012,07,04,08,42,11.50
2012,07,04,08,43,11.50
2012,07,04,08,44,11.50
2012,07,04,08,45,11.50
2012,07,04,08,46,11.50
2012,07,04,08,47,11.50
2012,07,04,08,48,11.50
2012,07,04,08,49,11.50
2012,07,04,08,50,11.60
2012,07,04,08,51,11.60
2012,07,04,08,52,11.60
2012,07,04,08,53,11.60
2012,07,04,08,54,11.60
2012,07,04,08,55,11.70
2012,07,04,08,56,11.70
2012,07,04,08,57,11.70
2012,07,04,08,58,11.70
2012,07,04,08,59,11.70
2012,07,04,09,00,11.70
2012,07,04,09,01,11.70
2012,07,04,09,02,11.70
2012,07,04,09,03,11.70
2012,07,04,09,04,11.80
2012,07,04,09,05,11.80
2012,07,04,09,06,11.80
2012,07,04,09,07,11.90
2012,07,04,09,08,11.90
2012,07,04,09,09,11.90
2012,07,04,09,10,12.00
2012,07,04,09,11,12.00
2012,07,04,09,12,12.00
2012,07,04,09,13,12.00
2012,07,04,09,14,12.00
2012,07,04,09,15,12.10
2012,07,04,09,16,12.10
2012,07,04,09,17,12.20
2012,07,04,09,18,12.20
2012,07,04,09,19,12.20
2012,07,04,09,20,12.20
2012,07,04,09,21,12.20
2012,07,04,09,22,12.30
2012,07,04,09,23,12.30
2012,07,04,09,24,12.30
2012,07,04,09,25,12.30
2012,07,04,09,26,12.30
2012,07,04,09,27,12.30
2012,07,04,09,28,12.40
2012,07,04,09,29,12.40
2012,07,04,09,30,12.40
2012,07,04,09,31,12.40
2012,07,04,09,32,12.50
2012,07,04,09,33,12.50
2012,07,04,09,34,12.60
2012,07,04,09,35,12.60
2012,07,04,09,36,12.60
2012,07,04,09,37,12.70
2012,07,04,09,38,12.70
2012,07,04,09,39,12.70
2012,07,04,09,40,12.70
2012,07,04,09,41,12.70
2012,07,04,09,42,12.70
2012,07,04,09,43,12.80
2012,07,04,09,44,12.80
2012,07,04,09,45,12.80
2012,07,04,09,46,12.90
2012,07,04,09,47,12.90
2012,07,04,09,48,12.90
2012,07,04,09,49,13.00
2012,07,04,09,50,13.00
2012,07,04,09,51,13.00
2012,07,04,09,52,13.10
2012,07,04,09,53,13.10
2012,07,04,09,54,13.10
2012,07,04,09,55,13.10
2012,07,04,09,56,13.10
2012,07,04,09,57,13.10
2012,07,04,09,58,13.00
2012,07,04,09,59,13.00
2012,07,04,10,00,13.00
2012,07,04,10,01,12.90
2012,07,04,10,02,12.90
2012,07,04,10,03,13.00
2012,07,04,10,04,13.00
2012,07,04,10,05,13.00
2012,07,04,10,06,13.00
2012,07,04,10,07,13.00
2012,07,04,10,08,13.00
2012,07,04,10,09,13.10
2012,07,04,10,10,13.00
2012,07,04,10,11,13.10
2012,07,04,10,12,13.10
2012,07,04,10,13,13.10
2012,07,04,10,14,13.10
2012,07,04,10,15,13.10
2012,07,04,10,16,13.10
2012,07,04,10,17,13.10
2012,07,04,10,18,13.20
2012,07,04,10,19,13.20
2012,07,04,10,20,13.20
2012,07,04,10,21,13.20
2012,07,04,10,22,13.30
2012,07,04,10,23,13.30
2012,07,04,10,24,13.30
2012,07,04,10,25,13.40
2012,07,04,10,26,13.40
2012,07,04,10,27,13.40
2012,07,04,10,28,13.40
2012,07,04,10,29,13.40
2012,07,04,10,30,13.40
2012,07,04,10,31,13.40
2012,07,04,10,32,13.40
2012,07,04,10,33,13.40
2012,07,04,10,34,13.50
2012,07,04,10,35,13.50
2012,07,04,10,36,13.60
2012,07,04,10,37,13.60
2012,07,04,10,38,13.60
2012,07,04,10,39,13.60
2012,07,04,10,40,13.60
2012,07,04,10,41,13.60
2012,07,04,10,42,13.60
2012,07,04,10,43,13.60
2012,07,04,10,44,13.60
2012,07,04,10,45,13.60
2012,07,04,10,46,13.60
2012,07,04,10,47,13.60
2012,07,04,10,48,13.60
2012,07,04,10,49,13.60
2012,07,04,10,50,13.60
2012,07,04,10,51,13.70
2012,07,04,10,52,13.70
2012,07,04,10,53,13.70
2012,07,04,10,54,13.80
2012,07,04,10,55,13.80
2012,07,04,10,56,13.90
2012,07,04,10,57,14.00
2012,07,04,10,58,14.10
2012,07,04,10,59,14.20
2012,07,04,11,00,14.30
2012,07,04,11,01,14.30
2012,07,04,11,02,14.40
2012,07,04,11,03,14.50
2012,07,04,11,04,14.60
2012,07,04,11,05,14.70
2012,07,04,11,06,14.80
2012,07,04,11,07,14.80
2012,07,04,11,08,15.00
2012,07,04,11,09,15.10
2012,07,04,11,10,15.20
2012,07,04,11,11,15.30
2012,07,04,11,12,15.50
2012,07,04,11,13,15.70
2012,07,04,11,14,15.80
2012,07,04,11,15,15.90
2012,07,04,11,16,15.90
2012,07,04,11,17,15.90
2012,07,04,11,18,15.80
2012,07,04,11,19,15.80
2012,07,04,11,20,15.90
2012,07,04,11,21,15.90
2012,07,04,11,22,15.90
2012,07,04,11,23,15.80
2012,07,04,11,24,15.80
2012,07,04,11,25,15.90
2012,07,04,11,26,15.90
2012,07,04,11,27,16.00
2012,07,04,11,28,16.00
2012,07,04,11,29,16.00
2012,07,04,11,30,16.00
2012,07,04,11,31,16.10
2012,07,04,11,32,16.10
2012,07,04,11,33,16.20
2012,07,04,11,34,16.20
2012,07,04,11,35,16.20
2012,07,04,11,36,16.20
2012,07,04,11,37,16.20
2012,07,04,11,38,16.20
2012,07,04,11,39,16.20
2012,07,04,11,40,16.20
2012,07,04,11,41,16.20
2012,07,04,11,42,16.00
2012,07,04,11,43,15.90
2012,07,04,11,44,15.90
2012,07,04,11,45,15.90
2012,07,04,11,46,15.90
2012,07,04,11,47,16.00
2012,07,04,11,48,16.10
2012,07,04,11,49,16.20
2012,07,04,11,50,16.30
2012,07,04,11,51,16.40
2012,07,04,11,52,16.40
2012,07,04,11,53,16.50
2012,07,04,11,54,16.70
2012,07,04,11,55,16.80
2012,07,04,11,56,16.80
2012,07,04,11,57,16.90
2012,07,04,11,58,17.00
2012,07,04,11,59,17.00
2012,07,04,12,00,17.10
2012,07,04,12,01,17.20
2012,07,04,12,02,17.30
2012,07,04,12,03,17.40
2012,07,04,12,04,17.50
2012,07,04,12,05,17.50
2012,07,04,12,06,17.60
2012,07,04,12,07,17.70
2012,07,04,12,08,17.70
2012,07,04,12,09,17.70
2012,07,04,12,10,17.70
2012,07,04,12,11,17.70
2012,07,04,12,12,17.70
2012,07,04,12,13,17.70
2012,07,04,12,14,17.70
2012,07,04,12,15,17.60
2012,07,04,12,16,17.60
2012,07,04,12,17,17.70
2012,07,04,12,18,17.80
2012,07,04,12,19,17.80
2012,07,04,12,20,17.80
2012,07,04,12,21,17.80
2012,07,04,12,22,17.90
2012,07,04,12,23,17.90
2012,07,04,12,24,17.80
2012,07,04,12,25,17.80
2012,07,04,12,26,17.70
2012,07,04,12,27,17.70
2012,07,04,12,28,17.70
2012,07,04,12,29,17.70
2012,07,04,12,30,17.70
2012,07,04,12,31,17.70
2012,07,04,12,32,17.60
2012,07,04,12,33,17.50
2012,07,04,12,34,17.50
2012,07,04,12,35,17.40
2012,07,04,12,36,17.30
2012,07,04,12,37,17.30
2012,07,04,12,38,17.30
2012,07,04,12,39,17.50
2012,07,04,12,40,17.60
2012,07,04,12,41,17.80
2012,07,04,12,42,18.00
2012,07,04,12,43,18.10
2012,07,04,12,44,18.30
2012,07,04,12,45,18.30
2012,07,04,12,46,18.30
2012,07,04,12,47,18.30
2012,07,04,12,48,18.30
2012,07,04,12,49,18.30
2012,07,04,12,50,18.30
2012,07,04,12,51,18.20
2012,07,04,12,52,18.20
2012,07,04,12,53,18.20
2012,07,04,12,54,18.30
2012,07,04,12,55,18.30
2012,07,04,12,56,18.30
2012,07,04,12,57,18.40
2012,07,04,12,58,18.40
2012,07,04,12,59,18.50
2012,07,04,13,00,18.60
2012,07,04,13,01,18.70
2012,07,04,13,02,18.80
2012,07,04,13,03,18.90
2012,07,04,13,04,18.90
2012,07,04,13,05,18.80
2012,07,04,13,06,18.80
2012,07,04,13,07,18.70
2012,07,04,13,08,18.60
2012,07,04,13,09,18.60
2012,07,04,13,10,18.60
2012,07,04,13,11,18.40
2012,07,04,13,12,18.20
2012,07,04,13,13,18.00
2012,07,04,13,14,18.00
2012,07,04,13,15,18.00
2012,07,04,13,16,18.00
2012,07,04,13,17,18.10
2012,07,04,13,18,18.10
2012,07,04,13,19,18.00
2012,07,04,13,20,18.00
2012,07,04,13,21,18.10
2012,07,04,13,22,18.20
2012,07,04,13,23,18.30
2012,07,04,13,24,18.40
2012,07,04,13,25,18.40
2012,07,04,13,26,18.40
2012,07,04,13,27,18.40
2012,07,04,13,28,18.40
2012,07,04,13,29,18.40
2012,07,04,13,30,18.40
2012,07,04,13,31,18.50
2012,07,04,13,32,18.60
2012,07,04,13,33,18.70
2012,07,04,13,34,18.70
2012,07,04,13,35,18.80
2012,07,04,13,36,18.80
2012,07,04,13,37,18.80
2012,07,04,13,38,18.90
2012,07,04,13,39,18.90
2012,07,04,13,40,18.80
2012,07,04,13,41,18.70
2012,07,04,13,42,18.80
2012,07,04,13,43,18.80
2012,07,04,13,44,18.70
2012,07,04,13,45,18.60
2012,07,04,13,46,18.60
2012,07,04,13,47,18.60
2012,07,04,13,48,18.70
2012,07,04,13,49,18.70
2012,07,04,13,50,18.70
2012,07,04,13,51,18.60
2012,07,04,13,52,18.50
2012,07,04,13,53,18.60
2012,07,04,13,54,18.60
2012,07,04,13,55,18.50
2012,07,04,13,56,18.20
2012,07,04,13,57,17.90
2012,07,04,13,58,17.60
2012,07,04,13,59,17.40
2012,07,04,14,00,17.20
2012,07,04,14,01,17.20
2012,07,04,14,02,17.20
2012,07,04,14,03,17.20
2012,07,04,14,04,17.20
2012,07,04,14,05,17.30
2012,07,04,14,06,17.40
2012,07,04,14,07,17.50
2012,07,04,14,08,17.70
2012,07,04,14,09,17.80
2012,07,04,14,10,17.80
2012,07,04,14,11,17.80
2012,07,04,14,12,17.80
2012,07,04,14,13,17.70
2012,07,04,14,14,17.70
2012,07,04,14,15,17.80
2012,07,04,14,16,17.90
2012,07,04,14,17,17.80
2012,07,04,14,18,17.90
2012,07,04,14,19,17.90
2012,07,04,14,20,17.90
2012,07,04,14,21,17.90
2012,07,04,14,22,17.90
2012,07,04,14,23,18.00
2012,07,04,14,24,18.20
2012,07,04,14,25,18.30
2012,07,04,14,26,18.40
2012,07,04,14,27,18.50
2012,07,04,14,28,18.50
2012,07,04,14,29,18.60
2012,07,04,14,30,18.60
2012,07,04,14,31,18.60
2012,07,04,14,32,18.60
2012,07,04,14,33,18.60
2012,07,04,14,34,18.80
2012,07,04,14,35,18.90
2012,07,04,14,36,19.00
2012,07,04,14,37,19.10
2012,07,04,14,38,19.20
2012,07,04,14,39,19.10
2012,07,04,14,40,19.00
2012,07,04,14,41,19.00
2012,07,04,14,42,19.00
2012,07,04,14,43,19.00
2012,07,04,14,44,19.10
2012,07,04,14,45,19.10
2012,07,04,14,46,19.10
2012,07,04,14,47,19.00
2012,07,04,14,48,18.80
2012,07,04,14,49,18.80
2012,07,04,14,50,18.80
2012,07,04,14,51,18.80
2012,07,04,14,52,18.90
2012,07,04,14,53,19.00
2012,07,04,14,54,19.00
2012,07,04,14,55,19.10
2012,07,04,14,56,19.10
2012,07,04,14,57,19.20
2012,07,04,14,58,19.30
2012,07,04,14,59,19.40
2012,07,04,15,00,19.40
2012,07,04,15,01,19.40
2012,07,04,15,02,19.50
2012,07,04,15,03,19.60
2012,07,04,15,04,19.60
2012,07,04,15,05,19.60
2012,07,04,15,06,19.70
2012,07,04,15,07,19.80
2012,07,04,15,08,19.80
2012,07,04,15,09,19.80
2012,07,04,15,10,19.80
2012,07,04,15,11,19.80
2012,07,04,15,12,19.80
2012,07,04,15,13,19.80
2012,07,04,15,14,19.80
2012,07,04,15,15,19.80
2012,07,04,15,16,19.80
2012,07,04,15,17,19.80
2012,07,04,15,18,19.90
2012,07,04,15,19,20.00
2012,07,04,15,20,20.10
2012,07,04,15,21,20.20
2012,07,04,15,22,20.20
2012,07,04,15,23,20.30
2012,07,04,15,24,20.20
2012,07,04,15,25,20.20
2012,07,04,15,26,20.10
2012,07,04,15,27,20.10
2012,07,04,15,28,20.10
2012,07,04,15,29,20.10
2012,07,04,15,30,20.10
2012,07,04,15,31,20.10
2012,07,04,15,32,20.10
2012,07,04,15,33,20.10
2012,07,04,15,34,20.10
2012,07,04,15,35,20.10
2012,07,04,15,36,20.20
2012,07,04,15,37,20.20
2012,07,04,15,38,20.20
2012,07,04,15,39,20.20
2012,07,04,15,40,20.20
2012,07,04,15,41,20.20
2012,07,04,15,42,20.20
2012,07,04,15,43,20.20
2012,07,04,15,44,20.20
2012,07,04,15,45,20.20
2012,07,04,15,46,20.20
2012,07,04,15,47,20.20
2012,07,04,15,48,20.10
2012,07,04,15,49,20.10
2012,07,04,15,50,20.00
2012,07,04,15,51,19.80
2012,07,04,15,52,19.80
2012,07,04,15,53,19.80
2012,07,04,15,54,19.90
2012,07,04,15,55,20.00
2012,07,04,15,56,20.10
2012,07,04,15,57,20.20
2012,07,04,15,58,20.20
2012,07,04,15,59,20.30
2012,07,04,16,00,20.30
2012,07,04,16,01,20.40
2012,07,04,16,02,20.40
2012,07,04,16,03,20.40
2012,07,04,16,04,20.30
2012,07,04,16,05,20.30
2012,07,04,16,06,20.30
2012,07,04,16,07,20.30
2012,07,04,16,08,20.30
2012,07,04,16,09,20.00
2012,07,04,16,10,19.90
2012,07,04,16,11,19.80
2012,07,04,16,12,19.80
2012,07,04,16,13,19.90
2012,07,04,16,14,20.00
2012,07,04,16,15,20.00
2012,07,04,16,16,20.10
2012,07,04,16,17,20.20
2012,07,04,16,18,20.30
2012,07,04,16,19,20.40
2012,07,04,16,20,20.40
2012,07,04,16,21,20.50
2012,07,04,16,22,20.50
2012,07,04,16,23,20.60
2012,07,04,16,24,20.60
2012,07,04,16,25,20.60
2012,07,04,16,26,20.50
2012,07,04,16,27,20.50
2012,07,04,16,28,20.40
2012,07,04,16,29,20.30
2012,07,04,16,30,20.30
2012,07,04,16,31,20.30
2012,07,04,16,32,20.30
2012,07,04,16,33,20.30
2012,07,04,16,34,20.20
2012,07,04,16,35,20.20
2012,07,04,16,36,20.20
2012,07,04,16,37,20.10
2012,07,04,16,38,20.10
2012,07,04,16,39,20.10
2012,07,04,16,40,20.00
2012,07,04,16,41,20.00
2012,07,04,16,42,20.10
2012,07,04,16,43,20.20
2012,07,04,16,44,20.20
2012,07,04,16,45,20.30
2012,07,04,16,46,20.40
2012,07,04,16,47,20.50
2012,07,04,16,48,20.60
2012,07,04,16,49,20.70
2012,07,04,16,50,20.70
2012,07,04,16,51,20.70
2012,07,04,16,52,20.50
2012,07,04,16,53,20.40
2012,07,04,16,54,20.20
2012,07,04,16,55,20.10
2012,07,04,16,56,20.10
2012,07,04,16,57,20.10
2012,07,04,16,58,20.00
2012,07,04,16,59,20.00
2012,07,04,17,00,20.00
2012,07,04,17,01,20.10
2012,07,04,17,02,20.10
2012,07,04,17,03,20.10
2012,07,04,17,04,20.10
2012,07,04,17,05,20.10
2012,07,04,17,06,20.10
2012,07,04,17,07,20.10
2012,07,04,17,08,20.10
2012,07,04,17,09,20.20
2012,07,04,17,10,20.20
2012,07,04,17,11,20.20
2012,07,04,17,12,20.20
2012,07,04,17,13,20.20
2012,07,04,17,14,20.20
2012,07,04,17,15,20.20
2012,07,04,17,16,20.10
2012,07,04,17,17,20.10
2012,07,04,17,18,20.10
2012,07,04,17,19,20.00